Regional Weather Roundup
Issued by NWS Newport/Morehead, NC

Current Version | Previous Version | Text Only | Print | Product List | Glossary On
Versions: 1 2 3 4 5 6 7 8 9 10 11 12 13 14 15 16 17 18 19 20 21 22 23 24 25 26 27 28 29 30 31 32 33 34 35 36 37 38 39 40 41 42 43 44 45 46 47 48 49 50
000
ASUS42 KMHX 220422
RWRMHX
WEATHER ROUNDUP FOR EASTERN NORTH CAROLINA
NATIONAL WEATHER SERVICE NEWPORT/MOREHEAD CITY NC
1100 PM EST SUN DEC 21 2014

NOTE: "FAIR" INDICATES FEW OR NO CLOUDS BELOW 12,000 FEET
WITH NO SIGNIFICANT WEATHER AND/OR OBSTRUCTIONS TO VISIBILITY

NCZ015>017-031-032-045>047-102-103-220500-
NORTH COAST

CITY           SKY/WX    TMP DP  RH WIND       PRES   REMARKS
EDENTON          N/A     40  35  83 NE5       30.25F
ELIZABETH CITY MOCLDY    43  36  76 N7        30.27R
KITTY HAWK     MOCLDY    47  42  83 NE8       30.23S
MANTEO         CLOUDY    47  42  83 NE16      30.23F

$$

NCZ045>047-081-094-103-104-220500-
CENTRAL COAST

CITY           SKY/WX    TMP DP  RH WIND       PRES   REMARKS
FRISCO         LGT RAIN  48  46  93 NE8       30.20F
SWANQUARTER      N/A     45 N/A N/A NE15      30.18S

$$

NCZ095-097-098-100-101-220500-
SOUTHERN COAST

CITY           SKY/WX    TMP DP  RH WIND       PRES   REMARKS
BEAUFORT       LGT RAIN  45  43  93 NE12G20   30.18F
CEDAR ISLAND     N/A     46 N/A N/A VRB14G22  30.24S
JACKSONVILLE   LGT RAIN  43  41  93 N10       30.19F FOG
PINEY ISLAND   LGT RAIN  48  43  82 MISG      30.20F
WILMINGTON     CLOUDY    44  42  93 N8        30.17S


$$

NCZ011>013-027>030-043-044-078>080-089-090>093-098-220500-
COASTAL PLAIN

CITY           SKY/WX    TMP DP  RH WIND       PRES   REMARKS
AHOSKIE        CLOUDY    36  30  79 NE6       30.27F
CLINTON        CLOUDY    46  37  73 NE6       30.20F
ELIZABETHTOWN  CLOUDY    43  41  94 CALM      30.17F
GOLDSBORO      CLOUDY    44  41  90 NE8       30.21S
GREENVILLE     CLOUDY    41  34  75 NE5       30.25F
HAVELOCK       LGT RAIN  44  41  89 NE12      30.21F FOG
KENANSVILLE    CLOUDY    42  40  95 CALM      30.21F FOG
KINSTON        CLOUDY    43  36  77 NE9       30.24S
NEW BERN       CLOUDY    44  39  82 NE10      30.22F
RICHLANDS      CLOUDY    43  37  81 NE14      30.19F
ROCKY MOUNT    CLOUDY    42  33  70 NE7       30.26S
WASHINGTON     CLOUDY    40  35  81 NE7       30.24F
WHITEVILLE     CLOUDY    43  40  91 NE6       30.16F

$$

AMZ130-135-150-152-154-156-158-170-250-252-270-ANZ085-086-088-633-658-670-220500-
MARINE OBSERVATIONS

STATION/POSITION TIME  TEMP    WIND        PRES    WAVE   SWELL
                       AIR SEA DIR/SP/G            HT/PER HT/PER
                 (UTC) (F)     (DEG/KT/KT) (MB)    (FT/S) (FT/S)
CHESAPEAKE LIGHT 0400   43      50/ 15/ 16 1026.1
64 E VA BEACH    0400   49 55   40/ 16/ 17 1024.5    2/ 4   2/10
DUCK             0400   47 46   40/ 17/ 19 1023.5
2 E DUCK         0400      46                N/A     3/ 5
10 NE DUCK       0400      50                N/A     4/ 4
OREGON INLET     0400   48 48   20/ 12/ 15 1023.5
13E OREGON INLT  0400      52                N/A     4/ 5
HATTERAS CG      0400   49 49   40/ 10/ 14 1022.7
DIAMOND BUOY     0400   58                 1021.5    4/ 5
17 S OCRACOKE    NOT AVBL
CAPE LOOKOUT     0400   46      20/ 17/ 22 1021.5
BEAUFORT LAB     0400   45 51   10/ 12/ 17 1021.0
30 SE NEW RIVER  0400   52 60   30/ 21/ 25 1021.2    6/ 6   2/10
5 SE WRIGHTSVLE  NOT AVBL
225 S CAPE HAT   0305   71 72  100/ 16/ 17 1019.2    7/ 6   2/ 9
41 SE CHARLESTON 0400   65 70   50/ 21/ 25 1017.5    8/ 7   2/15

$$



USA.gov is the U.S. government's official web portal to all federal, state and local government web resources and services.